TimeMDT,TemperatureF,Dew PointF,Humidity,Sea Level PressureIn,VisibilityMPH,Wind Direction,Wind SpeedMPH,Gust SpeedMPH,PrecipitationIn,Events,Conditions,WindDirDegrees,DateUTC
12:53 AM,36.0,30.9,82,30.41,10.0,WNW,10.4,-,N/A,,Overcast,300,2013-10-15 06:53:00
1:53 AM,35.1,32.0,89,30.42,10.0,WNW,9.2,-,N/A,,Overcast,300,2013-10-15 07:53:00
2:53 AM,36.0,30.9,82,30.41,10.0,NW,10.4,-,N/A,,Overcast,310,2013-10-15 08:53:00
3:53 AM,36.0,30.9,82,30.41,10.0,WNW,6.9,-,N/A,,Overcast,300,2013-10-15 09:53:00
4:53 AM,36.0,30.0,79,30.40,10.0,WNW,3.5,-,N/A,,Overcast,300,2013-10-15 10:53:00
5:53 AM,35.1,30.0,82,30.41,10.0,Calm,Calm,-,N/A,,Overcast,0,2013-10-15 11:53:00
6:53 AM,33.1,30.0,89,30.42,10.0,Calm,Calm,-,N/A,,Overcast,0,2013-10-15 12:53:00
7:53 AM,33.1,30.0,89,30.42,10.0,Calm,Calm,-,N/A,,Overcast,0,2013-10-15 13:53:00
8:53 AM,36.0,30.9,82,30.42,10.0,Calm,Calm,-,N/A,,Mostly Cloudy,0,2013-10-15 14:53:00
9:53 AM,37.0,30.0,76,30.43,10.0,Calm,Calm,-,N/A,,Mostly Cloudy,0,2013-10-15 15:53:00
10:53 AM,39.9,28.9,65,30.41,10.0,Calm,Calm,-,N/A,,Partly Cloudy,0,2013-10-15 16:53:00
11:53 AM,41.0,28.9,62,30.39,10.0,NNE,3.5,-,N/A,,Clear,20,2013-10-15 17:53:00
12:53 PM,42.1,25.0,51,30.38,10.0,Variable,3.5,-,N/A,,Mostly Cloudy,0,2013-10-15 18:53:00
1:53 PM,43.0,27.0,53,30.34,10.0,NNW,6.9,-,N/A,,Mostly Cloudy,330,2013-10-15 19:53:00
2:53 PM,43.0,26.1,51,30.31,10.0,NNW,6.9,-,N/A,,Mostly Cloudy,340,2013-10-15 20:53:00
3:53 PM,44.1,27.0,51,30.30,10.0,Variable,6.9,-,N/A,,Scattered Clouds,0,2013-10-15 21:53:00
4:53 PM,43.0,25.0,49,30.28,10.0,Calm,Calm,-,N/A,,Clear,0,2013-10-15 22:53:00
5:53 PM,42.1,26.1,53,30.27,10.0,East,3.5,-,N/A,,Clear,90,2013-10-15 23:53:00
6:53 PM,35.1,28.9,78,30.30,10.0,ESE,6.9,-,N/A,,Clear,110,2013-10-16 00:53:00
7:53 PM,35.1,28.9,78,30.30,10.0,SE,10.4,-,N/A,,Clear,130,2013-10-16 01:53:00
8:53 PM,32.0,28.0,85,30.29,10.0,SE,9.2,-,N/A,,Clear,140,2013-10-16 02:53:00
9:53 PM,30.9,27.0,85,30.28,10.0,SE,6.9,-,N/A,,Clear,140,2013-10-16 03:53:00
10:53 PM,30.9,27.0,85,30.26,10.0,Calm,Calm,-,N/A,,Clear,0,2013-10-16 04:53:00
11:53 PM,30.9,27.0,85,30.25,10.0,SE,5.8,-,N/A,,Clear,130,2013-10-16 05:53:00